Location: Be Sie
(6.7056°N, 10.8842°W)
Time: 02:32:42
(UTC+00:00)

Daily predictions for brighter satellites

Satellite Brightness Start Highest point End
(mag) Time Altitude Azimuth Time Altitude Azimuth Time Altitude Azimuth
H-2A R/B 3.6 04:22:03 25° E 04:22:03 25° E 04:25:50 10° ENE
SL-16 R/B 3.1 04:24:50 39° NE 04:25:42 42° ENE 04:31:01 10° SE
USA 234 4.0 04:20:27 10° NE 04:26:42 48° SE 04:32:57 10° SSW
Ariane H10 4.5 04:29:10 72° WNW 04:30:02 85° N 05:02:51 10° E
Ariane H10 4.5 04:29:10 72° WNW 04:30:03 85° N 05:02:50 10° E
Delta 2 Rocket 4.0 04:35:27 68° SSW 04:36:13 77° SSE 04:42:19 10° ENE
GPS 2-17 Rocket1 4.0 04:40:15 43° SE 04:40:15 43° SE 04:44:00 10° E
Haruka 4.4 04:38:53 20° S 04:40:16 25° SSE 04:43:06 10° E
ADEOS 4.2 04:40:53 10° NNE 04:45:57 53° ESE 04:51:01 10° S
CZ-3 R/B 3.9 04:31:55 34° NW 04:48:58 70° NNE 04:58:43 10° ESE
ADEOS Rocket 3.2 04:44:26 10° SSE 04:50:05 66° ENE 04:54:40 19° N
Ariane H10 4.3 04:51:00 27° SSE 04:51:00 27° SSE 04:52:44 10° ESE
Ariane H10 2.9 04:50:52 36° SSE 04:50:52 36° SSE 04:53:43 10° ESE
Okean 3 Rocket 3.8 04:49:01 10° S 04:53:21 67° E 04:54:30 46° NNE
Cosmos 1633 4.2 04:50:16 10° S 04:52:08 28° SSE 04:52:08 28° SSE
TSX-5 4.5 04:49:00 10° SSW 04:53:54 82° WNW 05:00:20 10° NNE
Cosmos 1709 Rocket 3.9 04:48:24 10° S 04:54:43 89° W 05:01:05 10° N
Meteor 2-3 Rocket 3.7 04:56:40 10° S 05:02:18 81° E 05:08:00 10° N
Hubble Space Telescope 2.2 05:04:56 27° SSW 05:04:56 27° SSW 05:08:10 10° SSE
Ariane V96 H10-3 3.3 05:06:23 57° WNW 05:07:13 80° N 05:19:57 10° E
GPS 2-14 Rocket1 3.7 05:09:08 34° SSW 05:09:25 34° SSW 05:13:13 10° SE
Cosmos 2221 4.4 05:12:17 17° SW 05:12:17 17° SW 05:13:28 10° SSW
Sylda 5 4.0 05:07:10 31° WSW 05:10:27 70° S 05:52:13 10° E
FENGYUN 3A 3.5 05:05:31 10° N 05:10:51 67° WNW 05:16:11 10° SSW
Cosmos 389 Rocket 2.7 05:12:11 39° NNE 05:13:18 67° E 05:16:49 10° SSE
Cosmos 1484 Rocket 3.0 05:16:36 47° WSW 05:16:36 47° WSW 05:19:42 10° SSW
Cosmos 1606 3.3 05:14:17 15° N 05:17:14 55° E 05:20:55 10° SSE
Cosmos 773 Rocket 4.2 05:14:56 13° N 05:19:38 70° ENE 05:24:47 10° SSE
USA 276 3.8 05:18:41 22° NNE 05:19:40 26° NE 05:22:23 10° ESE
CZ-4C R/B 2.6 05:16:50 10° S 05:20:01 67° W 05:20:03 67° W
USA 215 4.1 05:16:45 10° S 05:22:27 32° SW 05:24:57 25° W
Centaur AC-64 4.3 05:22:09 14° N 05:22:28 15° N 05:25:25 10° NE
Cosmos 990 Rocket 4.1 05:18:20 10° SSW 05:23:20 50° WNW 05:28:23 10° N
CZ-4B R/B 4.1 05:24:55 10° ESE 05:27:09 18° ENE 05:29:22 10° NNE
CZ-4B R/B 3.6 05:24:50 10° NNE 05:29:05 57° ESE 05:33:07 10° S
H-2A R/B 1.9 05:28:28 10° S 05:32:41 71° WSW 05:36:15 13° NNW
FALCON 9 R/B 4.0 05:14:05 10° SW 05:36:22 44° SSE 05:41:14 10° E
Cosmos 2184 Rocket 4.2 05:36:04 10° S 05:42:17 77° E 05:48:34 10° N
deb Chang Zheng 4 3.9 05:38:42 10° N 05:42:46 41° WNW 05:46:51 10° SSW
ALOS 3.2 05:40:46 17° NW 05:43:04 24° WNW 05:46:49 10° SW
Meteor 2-17 Rocket 4.5 05:40:03 10° SSW 05:45:57 56° W 05:51:50 10° N
ERS-2 3.6 05:42:44 10° SE 05:46:07 37° ENE 05:49:29 10° N
Cosmos 1844 Rocket 3.3 05:43:46 10° SW 05:48:46 33° WNW 05:53:47 10° N
SL-8 R/B 3.7 05:44:54 15° NW 05:48:49 90° NE 05:53:38 10° SE
Delta 7925 Rocket 3.5 05:47:45 16° W 05:51:16 47° NNW 05:56:11 10° NE
SWIFT 4.4 05:49:12 10° WSW 05:52:03 17° SSW 05:54:54 10° SSE
Meteor 1-31 Rocket 3.7 05:49:12 10° NNW 05:52:18 24° WNW 05:55:25 10° SW
ATLAS 2A CENTAUR R/B 2.2 05:51:45 10° WSW 05:54:35 86° SSE 06:03:48 10° ENE
KM-V1 3.8 05:54:31 23° WNW 05:55:03 26° NNW 05:56:54 10° NNE
COSMOS 2455 2.9 05:50:59 10° SSW 05:56:50 54° WNW 06:02:40 10° N
CRYOSAT 2 4.3 05:55:53 10° S 06:00:45 85° W 06:05:35 10° N
Cosmos 1933 3.3 05:56:44 10° NNW 06:00:46 63° W 06:04:47 10° S
CENTAUR R/B 3.8 05:53:47 10° NNW 06:02:31 64° ENE 06:11:01 10° SSE
Cosmos 1844 4.3 05:57:53 10° SW 06:02:43 31° WNW 06:07:34 10° NNW
Cosmos 1500 Rocket 3.4 05:58:31 10° S 06:02:49 72° W 06:07:06 10° N
Cosmos 1151 Rocket 3.0 05:59:02 10° N 06:03:19 85° W 06:07:38 10° S
Cosmos 1782 4.0 05:59:35 10° N 06:03:28 47° E 06:07:20 10° SSE
Cosmos 372 Rocket 3.9 06:01:27 10° SSW 06:06:32 73° WNW 06:11:35 10° N
USA 234 4.1 06:04:10 10° N 06:09:23 26° NW 06:14:38 10° WSW
SL-16 R/B 3.9 06:06:57 10° WNW 06:09:26 13° WSW 06:11:57 10° SW
Spelda 3.7 06:12:08 10° WSW 06:15:01 45° S 06:17:12 10° ESE
Maqsat-B 3.9 06:11:08 10° W 06:15:18 89° N 06:32:01 10° E
ATLAS 5 CENTAUR R/B 1.8 06:16:43 10° SW 06:20:26 36° WNW 06:24:04 10° N
Cosmos 1538 Rocket 4.5 06:17:26 10° NNW 06:22:20 41° W 06:27:12 10° S
ARIANE 5 R/B 4.0 06:29:26 10° WSW 06:48:58 52° S 06:52:37 10° ESE
